Back to catalog

NOAA 16 DEB

AliveSSO
NORAD 41085·DEBRIS·🇺🇸 United States

Launched Sep 21, 2000 from Vandenberg Space Force Base

Loading…

Next Passes (next 24 hours)

TLE

FreshSource: Space-Track

Epoch: Sep 14, 2026, 11:25 UTC

1 41085U 00055AU  26257.47635168  .00000815  00000-0  37289-3 0  9996
2 41085  98.6991 346.0378 0018943 349.6943  10.3844 14.24074240558978

Track NOAA 16 DEB in real time with AllMySat

Download on the App Store